| time (UTC) | temp F | wind direction | speed MPH | gust MPH | rain 1hr in | rain 24hr in | rain mn in | humidity % | barometer mb |
| 20260510231648 | 69 | 331 | 2.0 | 6.0 | 0.00 | 0.00 | 0.00 | 40 | 1016.3 |
| 20260510231516 | 69 | 330 | 2.0 | 6.0 | 0.00 | 0.00 | 0.00 | 40 | 1016.0 |
| 20260510231122 | 70 | 319 | 2.0 | 5.0 | 0.00 | 0.00 | 0.00 | 39 | 1016.4 |
| 20260510230607 | 70 | 312 | 2.0 | 5.0 | 0.00 | 0.00 | 0.00 | 40 | 1016.3 |
| 20260510230054 | 70 | 219 | 1.0 | 4.0 | 0.00 | 0.00 | 0.00 | 40 | 1016.3 |
| 20260510230037 | 70 | 219 | 1.0 | 4.0 | 0.00 | 0.00 | 0.00 | 40 | 1016.0 |
| 20260510225526 | 70 | 202 | 1.0 | 4.0 | 0.00 | 0.00 | 0.00 | 40 | 1016.3 |
| 20260510225000 | 70 | 206 | 1.0 | 4.0 | 0.00 | 0.00 | 0.00 | 39 | 1016.3 |
| 20260510224515 | 70 | 205 | 1.0 | 4.0 | 0.00 | 0.00 | 0.00 | 39 | 1016.0 |
| 20260510224436 | 70 | 206 | 2.0 | 6.0 | 0.00 | 0.00 | 0.00 | 39 | 1016.3 |
| 20260510223914 | 70 | 186 | 2.0 | 8.0 | 0.00 | 0.00 | 0.00 | 38 | 1016.3 |
| 20260510223408 | 71 | 140 | 2.0 | 8.0 | 0.00 | 0.00 | 0.00 | 37 | 1016.3 |
| 20260510223008 | 70 | 317 | 1.0 | 4.0 | 0.00 | 0.00 | 0.00 | 37 | 1015.8 |
| 20260510222841 | 71 | 316 | 1.0 | 4.0 | 0.00 | 0.00 | 0.00 | 37 | 1016.1 |
| 20260510222559 | 71 | 201 | 2.0 | 7.0 | 0.00 | 0.00 | 0.00 | 38 | 1016.3 |
| 20260510222036 | 71 | 210 | 2.0 | 6.0 | 0.00 | 0.00 | 0.00 | 38 | 1016.3 |
| 20260510221526 | 70 | 228 | 2.0 | 8.0 | 0.00 | 0.00 | 0.00 | 39 | 1015.8 |
| 20260510221248 | 70 | 230 | 3.0 | 9.0 | 0.00 | 0.00 | 0.00 | 38 | 1016.2 |
| 20260510220748 | 70 | 108 | 3.0 | 9.0 | 0.00 | 0.00 | 0.00 | 37 | 1016.2 |
| 20260510220221 | 71 | 213 | 3.0 | 9.0 | 0.00 | 0.00 | 0.00 | 37 | 1016.1 |
| 20260510220018 | 71 | 174 | 2.0 | 9.0 | 0.00 | 0.00 | 0.00 | 38 | 1015.7 |
| 20260510215718 | 71 | 219 | 2.0 | 7.0 | 0.00 | 0.00 | 0.00 | 39 | 1016.2 |
| 20260510215214 | 71 | 193 | 3.0 | 7.0 | 0.00 | 0.00 | 0.00 | 39 | 1016.2 |
| 20260510214715 | 71 | 180 | 3.0 | 7.0 | 0.00 | 0.00 | 0.00 | 39 | 1016.2 |
| 20260510214538 | 71 | 197 | 2.0 | 7.0 | 0.00 | 0.00 | 0.00 | 40 | 1015.8 |
| 20260510214150 | 71 | 142 | 2.0 | 7.0 | 0.00 | 0.00 | 0.00 | 36 | 1016.0 |
| 20260510213913 | 71 | 165 | 2.0 | 5.0 | 0.00 | 0.00 | 0.00 | 38 | 1016.0 |
| 20260510213138 | 71 | 142 | 2.0 | 5.0 | 0.00 | 0.00 | 0.00 | 40 | 1015.9 |
| 20260510213044 | 70 | 142 | 1.0 | 5.0 | 0.00 | 0.00 | 0.00 | 38 | 1015.4 |
| 20260510212856 | 70 | 125 | 3.0 | 9.0 | 0.00 | 0.00 | 0.00 | 38 | 1015.9 |
| 20260510212339 | 71 | 156 | 4.0 | 10.0 | 0.00 | 0.00 | 0.00 | 39 | 1015.9 |
| 20260510211611 | 71 | 224 | 3.0 | 10.0 | 0.00 | 0.00 | 0.00 | 37 | 1015.7 |
| 20260510211515 | 70 | 224 | 4.0 | 10.0 | 0.00 | 0.00 | 0.00 | 38 | 1015.3 |
| 20260510211113 | 71 | 257 | 2.0 | 7.0 | 0.00 | 0.00 | 0.00 | 40 | 1015.7 |
| 20260510210554 | 71 | 117 | 2.0 | 6.0 | 0.00 | 0.00 | 0.00 | 41 | 1015.6 |
| 20260510210055 | 71 | 163 | 2.0 | 6.0 | 0.00 | 0.00 | 0.00 | 39 | 1015.5 |
| 20260510205554 | 72 | 101 | 2.0 | 6.0 | 0.00 | 0.00 | 0.00 | 38 | 1015.5 |
| 20260510205026 | 72 | 335 | 2.0 | 6.0 | 0.00 | 0.00 | 0.00 | 37 | 1015.5 |
| 20260510204601 | 71 | 336 | 1.0 | 6.0 | 0.00 | 0.00 | 0.00 | 40 | 1015.1 |
| 20260510204526 | 71 | 336 | 2.0 | 6.0 | 0.00 | 0.00 | 0.00 | 40 | 1015.5 |
| 20260510204002 | 71 | 324 | 3.0 | 5.0 | 0.00 | 0.00 | 0.00 | 39 | 1015.6 |
| 20260510203457 | 71 | 303 | 3.0 | 7.0 | 0.00 | 0.00 | 0.00 | 38 | 1015.6 |
| 20260510203207 | 71 | 227 | 2.0 | 5.0 | 0.00 | 0.00 | 0.00 | 41 | 1015.7 |
| 20260510203053 | 71 | 184 | 3.0 | 7.0 | 0.00 | 0.00 | 0.00 | 37 | 1015.7 |
| 20260510203007 | 71 | 184 | 3.0 | 7.0 | 0.00 | 0.00 | 0.00 | 37 | 1015.3 |
| 20260510201945 | 71 | 107 | 3.0 | 6.0 | 0.00 | 0.00 | 0.00 | 41 | 1015.8 |
| 20260510201523 | 71 | 161 | 3.0 | 6.0 | 0.00 | 0.00 | 0.00 | 39 | 1015.5 |
| 20260510201444 | 72 | 126 | 2.0 | 6.0 | 0.00 | 0.00 | 0.00 | 39 | 1015.9 |
| 20260510200928 | 72 | 72 | 2.0 | 7.0 | 0.00 | 0.00 | 0.00 | 42 | 1015.9 |
| 20260510200426 | 72 | 319 | 2.0 | 7.0 | 0.00 | 0.00 | 0.00 | 38 | 1016.0 |
| 20260510200420 | 72 | 336 | 2.0 | 6.0 | 0.00 | 0.00 | 0.00 | 41 | 1016.0 |
| 20260510200007 | 71 | 342 | 2.0 | 6.0 | 0.00 | 0.00 | 0.00 | 41 | 1015.6 |
| 20260510195426 | 71 | 345 | 2.0 | 8.0 | 0.00 | 0.00 | 0.00 | 40 | 1015.9 |
| 20260510194927 | 70 | 243 | 3.0 | 11.0 | 0.00 | 0.00 | 0.00 | 40 | 1015.9 |
| 20260510194527 | 70 | 223 | 3.0 | 11.0 | 0.00 | 0.00 | 0.00 | 40 | 1015.4 |
| 20260510194401 | 71 | 119 | 3.0 | 11.0 | 0.00 | 0.00 | 0.00 | 45 | 1015.9 |
| 20260510193901 | 71 | 241 | 2.0 | 6.0 | 0.00 | 0.00 | 0.00 | 39 | 1015.9 |
| 20260510193402 | 71 | 142 | 2.0 | 7.0 | 0.00 | 0.00 | 0.00 | 41 | 1015.9 |
| 20260510193025 | 71 | 142 | 2.0 | 7.0 | 0.00 | 0.00 | 0.00 | 39 | 1015.6 |
| 20260510192838 | 72 | 202 | 3.0 | 7.0 | 0.00 | 0.00 | 0.00 | 37 | 1016.0 |
| 20260510192311 | 71 | 297 | 3.0 | 7.0 | 0.00 | 0.00 | 0.00 | 42 | 1016.0 |
| 20260510191747 | 71 | 143 | 3.0 | 9.0 | 0.00 | 0.00 | 0.00 | 40 | 1016.0 |
| 20260510191502 | 71 | 232 | 1.0 | 9.0 | 0.00 | 0.00 | 0.00 | 43 | 1015.4 |
| 20260510191222 | 71 | 339 | 2.0 | 8.0 | 0.00 | 0.00 | 0.00 | 41 | 1015.9 |
| 20260510190918 | 71 | 227 | 3.0 | 7.0 | 0.00 | 0.00 | 0.00 | 37 | 1015.8 |
| 20260510190200 | 71 | 163 | 3.0 | 10.0 | 0.00 | 0.00 | 0.00 | 42 | 1015.9 |
| 20260510190042 | 70 | 161 | 1.0 | 10.0 | 0.00 | 0.00 | 0.00 | 40 | 1015.5 |
| 20260510185636 | 70 | 215 | 2.0 | 5.0 | 0.00 | 0.00 | 0.00 | 43 | 1015.8 |
| 20260510185340 | 70 | 204 | 3.0 | 7.0 | 0.00 | 0.00 | 0.00 | 40 | 1015.8 |
| 20260510184550 | 70 | 184 | 3.0 | 7.0 | 0.00 | 0.00 | 0.00 | 38 | 1015.8 |
| 20260510184535 | 70 | 184 | 1.0 | 7.0 | 0.00 | 0.00 | 0.00 | 37 | 1015.4 |
| 20260510184026 | 71 | 309 | 3.0 | 8.0 | 0.00 | 0.00 | 0.00 | 39 | 1015.8 |
| 20260510183504 | 70 | 191 | 3.0 | 8.0 | 0.00 | 0.00 | 0.00 | 43 | 1015.9 |
| 20260510183015 | 70 | 155 | 3.0 | 8.0 | 0.00 | 0.00 | 0.00 | 42 | 1015.4 |
| 20260510182956 | 70 | 206 | 3.0 | 8.0 | 0.00 | 0.00 | 0.00 | 42 | 1015.9 |
| 20260510182456 | 70 | 198 | 3.0 | 10.0 | 0.00 | 0.00 | 0.00 | 45 | 1015.9 |
| 20260510181929 | 71 | 153 | 3.0 | 8.0 | 0.00 | 0.00 | 0.00 | 42 | 1016.0 |
| 20260510181605 | 70 | 231 | 2.0 | 5.0 | 0.00 | 0.00 | 0.00 | 43 | 1015.6 |
| 20260510181403 | 70 | 263 | 3.0 | 9.0 | 0.00 | 0.00 | 0.00 | 41 | 1016.0 |
| 20260510180838 | 70 | 334 | 3.0 | 9.0 | 0.00 | 0.00 | 0.00 | 41 | 1016.0 |
| 20260510180332 | 70 | 10 | 2.0 | 6.0 | 0.00 | 0.00 | 0.00 | 40 | 1015.9 |
| 20260510180024 | 69 | 261 | 1.0 | 5.0 | 0.00 | 0.00 | 0.00 | 44 | 1015.5 |
| 20260510175830 | 69 | 249 | 3.0 | 6.0 | 0.00 | 0.00 | 0.00 | 39 | 1015.8 |
| 20260510175327 | 69 | 240 | 3.0 | 9.0 | 0.00 | 0.00 | 0.00 | 41 | 1015.9 |
| 20260510174824 | 69 | 225 | 3.0 | 9.0 | 0.00 | 0.00 | 0.00 | 41 | 1015.9 |
| 20260510174541 | 69 | 300 | 3.0 | 10.0 | 0.00 | 0.00 | 0.00 | 41 | 1016.0 |
| 20260510174509 | 69 | 186 | 3.0 | 9.0 | 0.00 | 0.00 | 0.00 | 43 | 1015.5 |
| 20260510173755 | 69 | 349 | 3.0 | 10.0 | 0.00 | 0.00 | 0.00 | 40 | 1016.0 |
| 20260510173250 | 69 | 347 | 2.0 | 7.0 | 0.00 | 0.00 | 0.00 | 42 | 1016.0 |
| 20260510173013 | 69 | 355 | 2.0 | 6.0 | 0.00 | 0.00 | 0.00 | 42 | 1015.7 |
| 20260510173001 | 69 | 63 | 2.0 | 4.0 | 0.00 | 0.00 | 0.00 | 43 | 1016.2 |
| 20260510172244 | 69 | 124 | 2.0 | 7.0 | 0.00 | 0.00 | 0.00 | 41 | 1016.1 |
| 20260510171739 | 70 | 192 | 2.0 | 7.0 | 0.00 | 0.00 | 0.00 | 39 | 1016.0 |
| 20260510171501 | 70 | 205 | 3.0 | 7.0 | 0.00 | 0.00 | 0.00 | 43 | 1015.5 |
| 20260510171233 | 70 | 230 | 2.0 | 4.0 | 0.00 | 0.00 | 0.00 | 43 | 1015.9 |
| 20260510170731 | 70 | 273 | 2.0 | 5.0 | 0.00 | 0.00 | 0.00 | 44 | 1015.7 |
| 20260510170229 | 69 | 309 | 3.0 | 5.0 | 0.00 | 0.00 | 0.00 | 43 | 1015.7 |
| 20260510170027 | 69 | 209 | 2.0 | 5.0 | 0.00 | 0.00 | 0.00 | 42 | 1015.4 |
| 20260510165952 | 69 | 234 | 2.0 | 5.0 | 0.00 | 0.00 | 0.00 | 43 | 1015.8 |
| 20260510165226 | 69 | 44 | 2.0 | 5.0 | 0.00 | 0.00 | 0.00 | 44 | 1015.8 |
| 20260510164723 | 69 | 354 | 2.0 | 6.0 | 0.00 | 0.00 | 0.00 | 43 | 1015.8 |
| 20260510164554 | 69 | 355 | 2.0 | 5.0 | 0.00 | 0.00 | 0.00 | 44 | 1015.4 |
| 20260510164157 | 69 | 55 | 2.0 | 6.0 | 0.00 | 0.00 | 0.00 | 44 | 1015.8 |
| 20260510163652 | 68 | 50 | 3.0 | 9.0 | 0.00 | 0.00 | 0.00 | 47 | 1016.0 |
| 20260510163122 | 68 | 324 | 4.0 | 9.0 | 0.00 | 0.00 | 0.00 | 44 | 1015.9 |
| 20260510163031 | 67 | 285 | 2.0 | 9.0 | 0.00 | 0.00 | 0.00 | 44 | 1015.5 |
| 20260510162621 | 68 | 2 | 4.0 | 10.0 | 0.00 | 0.00 | 0.00 | 44 | 1016.0 |
| 20260510162055 | 68 | 317 | 3.0 | 10.0 | 0.00 | 0.00 | 0.00 | 42 | 1016.0 |
| 20260510161608 | 68 | 6 | 2.0 | 6.0 | 0.00 | 0.00 | 0.00 | 45 | 1015.6 |
| 20260510161551 | 68 | 8 | 3.0 | 6.0 | 0.00 | 0.00 | 0.00 | 45 | 1016.0 |
| 20260510161048 | 68 | 16 | 3.0 | 9.0 | 0.00 | 0.00 | 0.00 | 42 | 1015.9 |
| 20260510160746 | 68 | 324 | 3.0 | 9.0 | 0.00 | 0.00 | 0.00 | 41 | 1015.8 |
| 20260510160039 | 68 | 342 | 3.0 | 6.0 | 0.00 | 0.00 | 0.00 | 45 | 1015.3 |
| 20260510160019 | 68 | 343 | 2.0 | 6.0 | 0.00 | 0.00 | 0.00 | 45 | 1015.7 |
| 20260510155517 | 68 | 0 | 3.0 | 10.0 | 0.00 | 0.00 | 0.00 | 44 | 1015.7 |
| 20260510155013 | 67 | 338 | 3.0 | 10.0 | 0.00 | 0.00 | 0.00 | 48 | 1015.7 |
| 20260510154635 | 67 | 355 | 4.0 | 10.0 | 0.00 | 0.00 | 0.00 | 43 | 1015.4 |
| 20260510154507 | 67 | 25 | 3.0 | 8.0 | 0.00 | 0.00 | 0.00 | 44 | 1015.9 |
| 20260510154005 | 67 | 321 | 3.0 | 7.0 | 0.00 | 0.00 | 0.00 | 45 | 1015.9 |
| 20260510153502 | 67 | 344 | 2.0 | 9.0 | 0.00 | 0.00 | 0.00 | 46 | 1015.8 |
| 20260510153217 | 67 | 305 | 3.0 | 9.0 | 0.00 | 0.00 | 0.00 | 43 | 1015.8 |
| 20260510153019 | 67 | 327 | 2.0 | 9.0 | 0.00 | 0.00 | 0.00 | 43 | 1015.4 |
| 20260510152458 | 67 | 305 | 3.0 | 6.0 | 0.00 | 0.00 | 0.00 | 44 | 1015.7 |
| 20260510151929 | 67 | 209 | 3.0 | 8.0 | 0.00 | 0.00 | 0.00 | 46 | 1015.7 |
| 20260510151512 | 66 | 353 | 3.0 | 8.0 | 0.00 | 0.00 | 0.00 | 47 | 1015.2 |
| 20260510151426 | 67 | 312 | 3.0 | 8.0 | 0.00 | 0.00 | 0.00 | 45 | 1015.5 |
| 20260510151147 | 67 | 328 | 3.0 | 8.0 | 0.00 | 0.00 | 0.00 | 47 | 1015.5 |
| 20260510150421 | 66 | 201 | 3.0 | 8.0 | 0.00 | 0.00 | 0.00 | 45 | 1015.4 |
| 20260510150108 | 66 | 310 | 3.0 | 8.0 | 0.00 | 0.00 | 0.00 | 45 | 1015.0 |
| 20260510145854 | 66 | 347 | 2.0 | 7.0 | 0.00 | 0.00 | 0.00 | 46 | 1015.3 |
| 20260510145327 | 66 | 309 | 3.0 | 9.0 | 0.00 | 0.00 | 0.00 | 46 | 1015.3 |
| 20260510145041 | 66 | 326 | 2.0 | 9.0 | 0.00 | 0.00 | 0.00 | 44 | 1015.4 |
| 20260510144516 | 65 | 334 | 2.0 | 6.0 | 0.00 | 0.00 | 0.00 | 50 | 1015.0 |
| 20260510144323 | 66 | 332 | 3.0 | 7.0 | 0.00 | 0.00 | 0.00 | 50 | 1015.3 |
| 20260510143819 | 65 | 335 | 3.0 | 7.0 | 0.00 | 0.00 | 0.00 | 48 | 1015.3 |
| 20260510143317 | 65 | 347 | 2.0 | 10.0 | 0.00 | 0.00 | 0.00 | 48 | 1015.3 |
| 20260510143028 | 65 | 330 | 2.0 | 10.0 | 0.00 | 0.00 | 0.00 | 49 | 1014.8 |
| 20260510142753 | 65 | 310 | 3.0 | 10.0 | 0.00 | 0.00 | 0.00 | 51 | 1015.2 |
| 20260510142227 | 64 | 303 | 3.0 | 7.0 | 0.00 | 0.00 | 0.00 | 52 | 1015.0 |
| 20260510141920 | 64 | 335 | 3.0 | 7.0 | 0.00 | 0.00 | 0.00 | 54 | 1015.0 |
| 20260510141534 | 64 | 335 | 3.0 | 7.0 | 0.00 | 0.00 | 0.00 | 52 | 1014.6 |
| 20260510141133 | 64 | 341 | 2.0 | 6.0 | 0.00 | 0.00 | 0.00 | 53 | 1015.0 |
| 20260510140607 | 64 | 2 | 2.0 | 6.0 | 0.00 | 0.00 | 0.00 | 55 | 1015.0 |
| 20260510140304 | 64 | 331 | 2.0 | 4.0 | 0.00 | 0.00 | 0.00 | 55 | 1014.8 |
| 20260510140011 | 63 | 331 | 2.0 | 4.0 | 0.00 | 0.00 | 0.00 | 55 | 1014.4 |
| 20260510135514 | 63 | 338 | 2.0 | 5.0 | 0.00 | 0.00 | 0.00 | 57 | 1014.6 |
| 20260510135012 | 63 | 336 | 3.0 | 7.0 | 0.00 | 0.00 | 0.00 | 54 | 1014.5 |
| 20260510134507 | 63 | 10 | 2.0 | 7.0 | 0.00 | 0.00 | 0.00 | 55 | 1014.2 |
| 20260510134442 | 63 | 10 | 3.0 | 7.0 | 0.00 | 0.00 | 0.00 | 55 | 1014.5 |
| 20260510133943 | 63 | 324 | 2.0 | 6.0 | 0.00 | 0.00 | 0.00 | 57 | 1014.4 |
| 20260510133439 | 63 | 334 | 3.0 | 11.0 | 0.00 | 0.00 | 0.00 | 57 | 1014.2 |
| 20260510133041 | 62 | 351 | 2.0 | 8.0 | 0.00 | 0.00 | 0.00 | 59 | 1013.7 |
| 20260510132912 | 62 | 333 | 4.0 | 10.0 | 0.00 | 0.00 | 0.00 | 59 | 1014.1 |
| 20260510132410 | 62 | 354 | 3.0 | 11.0 | 0.00 | 0.00 | 0.00 | 59 | 1013.9 |
| 20260510131908 | 62 | 349 | 3.0 | 7.0 | 0.00 | 0.00 | 0.00 | 61 | 1013.8 |
| 20260510131602 | 62 | 340 | 4.0 | 7.0 | 0.00 | 0.00 | 0.00 | 61 | 1013.8 |
| 20260510131509 | 61 | 349 | 2.0 | 6.0 | 0.00 | 0.00 | 0.00 | 61 | 1013.3 |
| 20260510130839 | 61 | 358 | 3.0 | 7.0 | 0.00 | 0.00 | 0.00 | 62 | 1013.7 |
| 20260510130310 | 61 | 298 | 3.0 | 10.0 | 0.00 | 0.00 | 0.00 | 64 | 1013.6 |
| 20260510130107 | 60 | 313 | 2.0 | 10.0 | 0.00 | 0.00 | 0.00 | 66 | 1013.3 |
| 20260510125806 | 60 | 297 | 3.0 | 10.0 | 0.00 | 0.00 | 0.00 | 65 | 1013.6 |
| 20260510125241 | 60 | 284 | 3.0 | 6.0 | 0.00 | 0.00 | 0.00 | 66 | 1013.5 |
| 20260510124717 | 59 | 340 | 2.0 | 7.0 | 0.00 | 0.00 | 0.00 | 68 | 1013.5 |
| 20260510124534 | 58 | 338 | 2.0 | 6.0 | 0.00 | 0.00 | 0.00 | 69 | 1013.0 |
| 20260510124147 | 59 | 286 | 2.0 | 7.0 | 0.00 | 0.00 | 0.00 | 70 | 1013.4 |
| 20260510123647 | 58 | 283 | 1.0 | 4.0 | 0.00 | 0.00 | 0.00 | 71 | 1013.3 |
| 20260510123335 | 58 | 284 | 2.0 | 4.0 | 0.00 | 0.00 | 0.00 | 71 | 1013.2 |
| 20260510123025 | 58 | 284 | 1.0 | 4.0 | 0.00 | 0.00 | 0.00 | 71 | 1012.8 |
| 20260510122617 | 58 | 284 | 2.0 | 7.0 | 0.00 | 0.00 | 0.00 | 72 | 1013.2 |
| 20260510122048 | 58 | 284 | 2.0 | 7.0 | 0.00 | 0.00 | 0.00 | 72 | 1013.1 |
| 20260510121806 | 57 | 285 | 2.0 | 6.0 | 0.00 | 0.00 | 0.00 | 72 | 1013.1 |
| 20260510121515 | 57 | 285 | 1.0 | 6.0 | 0.00 | 0.00 | 0.00 | 72 | 1012.6 |
| 20260510121018 | 57 | 284 | 2.0 | 5.0 | 0.00 | 0.00 | 0.00 | 73 | 1012.8 |
| 20260510120450 | 57 | 283 | 3.0 | 5.0 | 0.00 | 0.00 | 0.00 | 73 | 1012.6 |
| 20260510120015 | 56 | 283 | 2.0 | 5.0 | 0.00 | 0.01 | 0.00 | 73 | 1012.2 |
| 20260510115925 | 57 | 283 | 3.0 | 7.0 | 0.00 | 0.00 | 0.00 | 73 | 1012.6 |
| 20260510115638 | 57 | 284 | 3.0 | 7.0 | 0.00 | 0.00 | 0.00 | 73 | 1012.3 |
| 20260510114916 | 57 | 285 | 3.0 | 7.0 | 0.00 | 0.00 | 0.00 | 74 | 1012.3 |
| 20260510114524 | 56 | 284 | 2.0 | 6.0 | 0.00 | 0.01 | 0.00 | 74 | 1012.0 |
| 20260510114346 | 57 | 284 | 3.0 | 7.0 | 0.00 | 0.00 | 0.00 | 74 | 1012.5 |
| 20260510114108 | 57 | 284 | 2.0 | 5.0 | 0.00 | 0.00 | 0.00 | 75 | 1012.5 |
| 20260510113319 | 57 | 284 | 2.0 | 7.0 | 0.00 | 0.00 | 0.00 | 75 | 1012.5 |
| 20260510113029 | 56 | 284 | 2.0 | 6.0 | 0.00 | 0.01 | 0.00 | 75 | 1012.1 |
| 20260510112750 | 56 | 284 | 2.0 | 3.0 | 0.00 | 0.00 | 0.00 | 76 | 1012.5 |
| 20260510112733 | 56 | 284 | 2.0 | 4.0 | 0.00 | 0.00 | 0.00 | 76 | 1012.2 |
| 20260510111720 | 57 | 284 | 1.0 | 4.0 | 0.00 | 0.00 | 0.00 | 76 | 1012.4 |
| 20260510111519 | 56 | 284 | 1.0 | 4.0 | 0.00 | 0.01 | 0.00 | 77 | 1012.3 |
| 20260510111219 | 57 | 285 | 1.0 | 2.0 | 0.00 | 0.00 | 0.00 | 77 | 1012.6 |
| 20260510110659 | 57 | 285 | 1.0 | 2.0 | 0.00 | 0.00 | 0.00 | 79 | 1012.6 |
| 20260510110128 | 57 | 286 | 1.0 | 2.0 | 0.00 | 0.01 | 0.00 | 79 | 1012.5 |
| 20260510110057 | 57 | 286 | 0.0 | 2.0 | 0.00 | 0.01 | 0.00 | 78 | 1012.2 |
| 20260510105602 | 57 | 286 | 1.0 | 3.0 | 0.00 | 0.01 | 0.00 | 76 | 1012.3 |
| 20260510105034 | 57 | 285 | 1.0 | 4.0 | 0.00 | 0.01 | 0.00 | 75 | 1012.0 |
| 20260510104601 | 57 | 282 | 2.0 | 8.0 | 0.00 | 0.04 | 0.00 | 75 | 1011.5 |
| 20260510104508 | 57 | 283 | 2.0 | 8.0 | 0.00 | 0.01 | 0.00 | 75 | 1011.8 |
| 20260510103944 | 57 | 283 | 1.0 | 8.0 | 0.00 | 0.01 | 0.00 | 75 | 1011.6 |
| 20260510103415 | 57 | 284 | 2.0 | 8.0 | 0.00 | 0.02 | 0.00 | 76 | 1011.6 |
| 20260510103106 | 57 | 287 | 1.0 | 8.0 | 0.00 | 0.04 | 0.00 | 76 | 1011.1 |
| 20260510102915 | 58 | 287 | 2.0 | 8.0 | 0.00 | 0.02 | 0.00 | 76 | 1011.5 |
| 20260510102346 | 58 | 284 | 2.0 | 11.0 | 0.00 | 0.02 | 0.00 | 76 | 1011.5 |
| 20260510102047 | 58 | 284 | 2.0 | 11.0 | 0.00 | 0.02 | 0.00 | 77 | 1011.4 |
| 20260510101532 | 57 | 284 | 3.0 | 11.0 | 0.00 | 0.04 | 0.00 | 77 | 1010.9 |
| 20260510101253 | 58 | 286 | 2.0 | 5.0 | 0.00 | 0.03 | 0.00 | 78 | 1011.3 |
| 20260510100751 | 58 | 286 | 2.0 | 7.0 | 0.00 | 0.03 | 0.00 | 78 | 1011.3 |
| 20260510100223 | 58 | 288 | 2.0 | 7.0 | 0.00 | 0.04 | 0.00 | 79 | 1011.2 |
| 20260510100022 | 58 | 288 | 2.0 | 6.0 | 0.00 | 0.04 | 0.00 | 79 | 1010.7 |
| 20260510095943 | 58 | 289 | 2.0 | 3.0 | 0.00 | 0.04 | 0.00 | 79 | 1011.1 |
| 20260510095152 | 58 | 290 | 2.0 | 3.0 | 0.00 | 0.04 | 0.00 | 79 | 1011.1 |
| 20260510094646 | 59 | 291 | 2.0 | 4.0 | 0.00 | 0.05 | 0.00 | 80 | 1011.1 |
| 20260510094610 | 58 | 291 | 1.0 | 4.0 | 0.00 | 0.07 | 0.00 | 80 | 1010.6 |
| 20260510094145 | 59 | 290 | 1.0 | 4.0 | 0.00 | 0.05 | 0.00 | 80 | 1011.1 |
| 20260510093621 | 59 | 273 | 1.0 | 2.0 | 0.00 | 0.05 | 0.00 | 80 | 1011.0 |
| 20260510093054 | 59 | 273 | 1.0 | 3.0 | 0.00 | 0.06 | 0.00 | 79 | 1011.1 |
| 20260510093002 | 59 | 273 | 1.0 | 3.0 | 0.00 | 0.07 | 0.00 | 79 | 1010.7 |
| 20260510092552 | 60 | 273 | 1.0 | 3.0 | 0.00 | 0.06 | 0.00 | 79 | 1011.0 |
| 20260510092029 | 60 | 288 | 1.0 | 3.0 | 0.00 | 0.06 | 0.00 | 78 | 1010.9 |
| 20260510091543 | 59 | 290 | 1.0 | 4.0 | 0.00 | 0.07 | 0.00 | 78 | 1010.4 |
| 20260510091523 | 60 | 290 | 2.0 | 4.0 | 0.00 | 0.06 | 0.00 | 78 | 1010.8 |
| 20260510091022 | 59 | 290 | 2.0 | 4.0 | 0.00 | 0.06 | 0.00 | 79 | 1010.7 |
| 20260510090457 | 60 | 290 | 1.0 | 3.0 | 0.00 | 0.06 | 0.00 | 78 | 1010.7 |
| 20260510090055 | 59 | 290 | 1.0 | 3.0 | 0.00 | 0.07 | 0.00 | 77 | 1010.3 |
| 20260510085928 | 60 | 290 | 1.0 | 3.0 | 0.00 | 0.07 | 0.00 | 77 | 1010.7 |
| 20260510085427 | 60 | 273 | 0.0 | 1.0 | 0.00 | 0.07 | 0.00 | 77 | 1010.6 |
| 20260510085132 | 60 | 290 | 0.0 | 1.0 | 0.00 | 0.07 | 0.00 | 77 | 1010.5 |
| 20260510084629 | 60 | 273 | 1.0 | 2.0 | 0.00 | 0.08 | 0.00 | 77 | 1010.5 |
| 20260510084555 | 59 | 273 | 0.0 | 2.0 | 0.00 | 0.10 | 0.00 | 77 | 1010.1 |
| 20260510084059 | 60 | 290 | 1.0 | 2.0 | 0.00 | 0.08 | 0.00 | 77 | 1010.5 |
| 20260510083537 | 60 | 273 | 0.0 | 2.0 | 0.00 | 0.08 | 0.00 | 77 | 1010.4 |
| 20260510083007 | 59 | 273 | 0.0 | 2.0 | 0.00 | 0.10 | 0.00 | 77 | 1010.1 |
| 20260510082817 | 60 | 273 | 1.0 | 3.0 | 0.00 | 0.09 | 0.00 | 77 | 1010.4 |
| 20260510082253 | 60 | 273 | 0.0 | 3.0 | 0.00 | 0.09 | 0.00 | 77 | 1010.3 |
| 20260510081751 | 60 | 273 | 1.0 | 3.0 | 0.00 | 0.09 | 0.00 | 76 | 1010.3 |
| 20260510081545 | 60 | 273 | 0.0 | 3.0 | 0.00 | 0.10 | 0.00 | 76 | 1009.8 |
| 20260510081254 | 60 | 291 | 1.0 | 3.0 | 0.00 | 0.10 | 0.00 | 76 | 1009.9 |
| 20260510080553 | 60 | 273 | 1.0 | 3.0 | 0.00 | 0.10 | 0.00 | 75 | 1009.8 |
| 20260510080106 | 60 | 273 | 0.0 | 2.0 | 0.00 | 0.10 | 0.00 | 75 | 1009.4 |
| 20260510080027 | 60 | 292 | 1.0 | 3.0 | 0.00 | 0.10 | 0.00 | 75 | 1009.8 |
| 20260510075505 | 60 | 273 | 1.0 | 3.0 | 0.00 | 0.10 | 0.00 | 75 | 1009.7 |
| 20260510074938 | 60 | 273 | 1.0 | 3.0 | 0.00 | 0.11 | 0.00 | 74 | 1009.5 |
| 20260510074638 | 61 | 273 | 1.0 | 3.0 | 0.00 | 0.11 | 0.00 | 74 | 1009.7 |
| 20260510074538 | 60 | 273 | 0.0 | 3.0 | 0.00 | 0.13 | 0.00 | 74 | 1009.1 |
| 20260510073915 | 61 | 290 | 1.0 | 4.0 | 0.00 | 0.11 | 0.00 | 74 | 1009.5 |
| 20260510073618 | 61 | 273 | 2.0 | 4.0 | 0.00 | 0.12 | 0.00 | 74 | 1009.6 |
| 20260510073020 | 61 | 273 | 1.0 | 4.0 | 0.00 | 0.13 | 0.00 | 73 | 1009.2 |
| 20260510072831 | 61 | 273 | 2.0 | 4.0 | 0.00 | 0.12 | 0.00 | 73 | 1009.7 |
| 20260510072329 | 62 | 273 | 2.0 | 4.0 | 0.00 | 0.12 | 0.00 | 72 | 1009.6 |
| 20260510071827 | 62 | 273 | 2.0 | 4.0 | 0.00 | 0.12 | 0.00 | 71 | 1009.6 |
| 20260510071539 | 62 | 273 | 1.0 | 4.0 | 0.00 | 0.13 | 0.00 | 70 | 1009.1 |
| 20260510071312 | 62 | 273 | 1.0 | 4.0 | 0.00 | 0.12 | 0.00 | 70 | 1009.6 |
| 20260510071036 | 63 | 286 | 1.0 | 4.0 | 0.00 | 0.13 | 0.00 | 69 | 1009.4 |
| 20260510070249 | 63 | 286 | 1.0 | 5.0 | 0.00 | 0.13 | 0.00 | 69 | 1009.5 |
| 20260510070025 | 62 | 286 | 0.0 | 5.0 | 0.00 | 0.13 | 0.00 | 69 | 1009.1 |
| 20260510065738 | 63 | 285 | 1.0 | 5.0 | 0.00 | 0.13 | 0.00 | 69 | 1009.5 |
| 20260510065237 | 63 | 285 | 2.0 | 4.0 | 0.00 | 0.14 | 0.00 | 68 | 1009.4 |
| 20260510065226 | 64 | 286 | 1.0 | 4.0 | 0.00 | 0.14 | 0.00 | 67 | 1009.4 |
| 20260510064511 | 63 | 286 | 1.0 | 3.0 | 0.00 | 0.15 | 0.00 | 67 | 1009.0 |
| 20260510064439 | 64 | 286 | 1.0 | 3.0 | 0.00 | 0.14 | 0.00 | 67 | 1009.5 |
| 20260510063710 | 64 | 286 | 1.0 | 3.0 | 0.00 | 0.14 | 0.00 | 67 | 1009.5 |
| 20260510063142 | 64 | 286 | 1.0 | 3.0 | 0.00 | 0.14 | 0.00 | 67 | 1009.5 |
| 20260510063016 | 63 | 286 | 1.0 | 3.0 | 0.00 | 0.15 | 0.00 | 67 | 1009.1 |
| 20260510062901 | 64 | 286 | 1.0 | 2.0 | 0.00 | 0.14 | 0.00 | 67 | 1009.6 |
| 20260510062349 | 64 | 286 | 1.0 | 3.0 | 0.00 | 0.14 | 0.00 | 67 | 1009.5 |
| 20260510061819 | 64 | 286 | 1.0 | 3.0 | 0.00 | 0.14 | 0.00 | 67 | 1009.6 |
| 20260510061033 | 64 | 286 | 1.0 | 3.0 | 0.00 | 0.15 | 0.00 | 67 | 1009.7 |
| 20260510060537 | 64 | 286 | 1.0 | 3.0 | 0.00 | 0.15 | 0.00 | 67 | 1009.7 |
| 20260510060047 | 63 | 286 | 1.0 | 3.0 | 0.00 | 0.15 | 0.00 | 67 | 1009.3 |
| 20260510060009 | 64 | 286 | 2.0 | 5.0 | 0.00 | 0.15 | 0.00 | 67 | 1009.7 |
| 20260510055446 | 63 | 273 | 2.0 | 5.0 | 0.00 | 0.15 | 0.00 | 69 | 1009.7 |
| 20260510054926 | 63 | 287 | 2.0 | 5.0 | 0.00 | 0.15 | 0.00 | 70 | 1009.6 |
| 20260510054536 | 62 | 286 | 1.0 | 5.0 | 0.00 | 0.16 | 0.00 | 70 | 1009.3 |
| 20260510054359 | 62 | 286 | 2.0 | 5.0 | 0.00 | 0.15 | 0.00 | 71 | 1009.7 |
| 20260510053830 | 62 | 285 | 2.0 | 3.0 | 0.00 | 0.16 | 0.00 | 70 | 1009.7 |
| 20260510053333 | 62 | 285 | 2.0 | 3.0 | 0.00 | 0.16 | 0.00 | 70 | 1009.6 |
| 20260510053048 | 62 | 285 | 1.0 | 4.0 | 0.00 | 0.16 | 0.00 | 69 | 1009.1 |
| 20260510052808 | 63 | 285 | 1.0 | 4.0 | 0.00 | 0.16 | 0.00 | 69 | 1009.5 |
| 20260510052526 | 63 | 286 | 1.0 | 3.0 | 0.00 | 0.16 | 0.00 | 69 | 1009.5 |
| 20260510051804 | 63 | 286 | 1.0 | 3.0 | 0.00 | 0.16 | 0.00 | 68 | 1009.6 |
| 20260510051526 | 62 | 286 | 0.0 | 3.0 | 0.00 | 0.16 | 0.00 | 68 | 1009.2 |
| 20260510051236 | 63 | 286 | 1.0 | 3.0 | 0.00 | 0.16 | 0.00 | 68 | 1009.5 |
| 20260510050948 | 63 | 286 | 1.0 | 3.0 | 0.00 | 0.16 | 0.00 | 68 | 1009.5 |
| 20260510050230 | 63 | 286 | 2.0 | 3.0 | 0.00 | 0.16 | 0.00 | 68 | 1009.6 |
| 20260510050003 | 62 | 286 | 1.0 | 3.0 | 0.00 | 0.18 | 0.00 | 68 | 1009.2 |
| 20260510045703 | 63 | 286 | 2.0 | 4.0 | 0.00 | 0.16 | 0.00 | 67 | 1009.5 |
| 20260510045422 | 63 | 286 | 2.0 | 4.0 | 0.00 | 0.16 | 0.00 | 67 | 1009.5 |
| 20260510044646 | 63 | 286 | 2.0 | 3.0 | 0.00 | 0.16 | 0.00 | 67 | 1009.5 |
| 20260510044503 | 63 | 286 | 1.0 | 3.0 | 0.00 | 0.18 | 0.00 | 66 | 1009.2 |
| 20260510044144 | 64 | 286 | 2.0 | 4.0 | 0.00 | 0.16 | 0.00 | 66 | 1009.6 |
| 20260510043644 | 64 | 286 | 1.0 | 4.0 | 0.00 | 0.17 | 0.00 | 66 | 1009.6 |
| 20260510043143 | 64 | 286 | 2.0 | 3.0 | 0.00 | 0.17 | 0.00 | 66 | 1009.6 |
| 20260510043029 | 63 | 286 | 1.0 | 3.0 | 0.00 | 0.18 | 0.00 | 66 | 1009.2 |
| 20260510042644 | 64 | 286 | 2.0 | 3.0 | 0.00 | 0.17 | 0.00 | 65 | 1009.6 |
| 20260510042140 | 64 | 286 | 1.0 | 3.0 | 0.00 | 0.17 | 0.00 | 65 | 1009.6 |
| 20260510041638 | 64 | 286 | 1.0 | 2.0 | 0.00 | 0.18 | 0.00 | 64 | 1009.5 |
| 20260510041606 | 64 | 286 | 0.0 | 2.0 | 0.00 | 0.18 | 0.00 | 64 | 1009.2 |
| 20260510041109 | 64 | 286 | 1.0 | 2.0 | 0.00 | 0.18 | 0.00 | 64 | 1009.5 |
| 20260510040829 | 64 | 286 | 0.0 | 2.0 | 0.00 | 0.18 | 0.00 | 64 | 1009.6 |
| 20260510040012 | 64 | 286 | 0.0 | 2.0 | 0.00 | 0.18 | 0.00 | 64 | 1009.2 |
| 20260510035606 | 64 | 286 | 1.0 | 2.0 | 0.00 | 0.18 | 0.18 | 64 | 1009.5 |
| 20260510035257 | 65 | 286 | 1.0 | 2.0 | 0.00 | 0.18 | 0.18 | 63 | 1009.5 |
| 20260510034528 | 64 | 286 | 0.0 | 3.0 | 0.00 | 0.18 | 0.18 | 63 | 1009.1 |
| 20260510034511 | 65 | 286 | 1.0 | 3.0 | 0.00 | 0.18 | 0.18 | 63 | 1009.5 |
| 20260510034008 | 65 | 286 | 1.0 | 3.0 | 0.00 | 0.18 | 0.18 | 62 | 1009.4 |
| 20260510033441 | 65 | 286 | 0.0 | 2.0 | 0.00 | 0.18 | 0.18 | 62 | 1009.4 |
| 20260510032914 | 65 | 286 | 0.0 | 1.0 | 0.00 | 0.18 | 0.18 | 62 | 1009.5 |
| 20260510032405 | 65 | 286 | 0.0 | 1.0 | 0.00 | 0.18 | 0.18 | 62 | 1009.4 |
| 20260510031901 | 65 | 286 | 0.0 | 1.0 | 0.00 | 0.18 | 0.18 | 61 | 1009.4 |
| 20260510031526 | 65 | 286 | 0.0 | 1.0 | 0.00 | 0.18 | 0.18 | 61 | 1009.0 |
| 20260510031359 | 65 | 286 | 0.0 | 2.0 | 0.00 | 0.18 | 0.18 | 61 | 1009.3 |
| 20260510030855 | 65 | 286 | 0.0 | 1.0 | 0.00 | 0.18 | 0.18 | 60 | 1009.3 |
| 20260510030353 | 65 | 286 | 0.0 | 2.0 | 0.00 | 0.18 | 0.18 | 60 | 1009.3 |
| 20260510030050 | 65 | 286 | 0.0 | 2.0 | 0.00 | 0.18 | 0.18 | 60 | 1008.9 |
| 20260510025849 | 65 | 286 | 0.0 | 1.0 | 0.00 | 0.18 | 0.18 | 60 | 1009.3 |
| 20260510025324 | 66 | 286 | 0.0 | 2.0 | 0.00 | 0.18 | 0.18 | 60 | 1009.3 |
| 20260510024755 | 66 | 286 | 0.0 | 2.0 | 0.00 | 0.18 | 0.18 | 59 | 1009.2 |
| 20260510024555 | 66 | 286 | 0.0 | 2.0 | 0.00 | 0.18 | 0.18 | 59 | 1008.8 |
| 20260510024254 | 66 | 286 | 1.0 | 2.0 | 0.00 | 0.18 | 0.18 | 59 | 1009.1 |
| 20260510023948 | 67 | 286 | 1.0 | 3.0 | 0.00 | 0.18 | 0.18 | 59 | 1009.0 |
| 20260510023200 | 67 | 286 | 1.0 | 3.0 | 0.00 | 0.18 | 0.18 | 58 | 1009.1 |
| 20260510023111 | 66 | 286 | 0.0 | 3.0 | 0.00 | 0.18 | 0.18 | 58 | 1008.7 |
| 20260510022922 | 67 | 286 | 1.0 | 5.0 | 0.00 | 0.18 | 0.18 | 58 | 1009.0 |
| 20260510022132 | 67 | 286 | 2.0 | 5.0 | 0.00 | 0.18 | 0.18 | 57 | 1008.9 |
| 20260510021604 | 67 | 286 | 2.0 | 5.0 | 0.00 | 0.18 | 0.18 | 57 | 1008.9 |
| 20260510021552 | 68 | 286 | 2.0 | 5.0 | 0.00 | 0.18 | 0.18 | 56 | 1008.6 |
| 20260510021512 | 67 | 286 | 1.0 | 5.0 | 0.00 | 0.18 | 0.18 | 57 | 1008.5 |
| 20260510020536 | 68 | 286 | 2.0 | 4.0 | 0.00 | 0.18 | 0.18 | 56 | 1008.7 |
| 20260510020232 | 68 | 286 | 2.0 | 7.0 | 0.00 | 0.18 | 0.18 | 55 | 1008.5 |
| 20260510020026 | 67 | 286 | 0.0 | 6.0 | 0.00 | 0.18 | 0.18 | 55 | 1008.2 |
| 20260510015506 | 68 | 286 | 2.0 | 7.0 | 0.00 | 0.18 | 0.18 | 56 | 1008.5 |
| 20260510014937 | 68 | 287 | 2.0 | 8.0 | 0.00 | 0.18 | 0.18 | 56 | 1008.4 |
| 20260510014516 | 67 | 286 | 2.0 | 8.0 | 0.00 | 0.18 | 0.18 | 56 | 1008.0 |
| 20260510014435 | 68 | 286 | 2.0 | 8.0 | 0.00 | 0.18 | 0.18 | 55 | 1008.3 |
| 20260510013933 | 68 | 286 | 2.0 | 5.0 | 0.00 | 0.18 | 0.18 | 56 | 1008.2 |
| 20260510013403 | 68 | 287 | 2.0 | 5.0 | 0.00 | 0.18 | 0.18 | 55 | 1008.1 |
| 20260510013049 | 68 | 288 | 2.0 | 6.0 | 0.00 | 0.18 | 0.18 | 55 | 1007.8 |
| 20260510012900 | 68 | 286 | 2.0 | 7.0 | 0.00 | 0.18 | 0.18 | 55 | 1008.0 |
| 20260510012335 | 69 | 286 | 2.0 | 7.0 | 0.00 | 0.18 | 0.18 | 55 | 1007.8 |
| 20260510011806 | 69 | 287 | 2.0 | 7.0 | 0.00 | 0.18 | 0.18 | 55 | 1007.9 |
| 20260510011606 | 68 | 287 | 1.0 | 6.0 | 0.00 | 0.18 | 0.18 | 55 | 1007.7 |
| 20260510011528 | 69 | 286 | 2.0 | 7.0 | 0.00 | 0.18 | 0.18 | 55 | 1007.9 |
| 20260510011000 | 69 | 288 | 2.0 | 7.0 | 0.00 | 0.18 | 0.18 | 54 | 1007.8 |
| 20260510010233 | 69 | 287 | 2.0 | 7.0 | 0.00 | 0.18 | 0.18 | 54 | 1007.8 |
| 20260510010008 | 69 | 287 | 2.0 | 6.0 | 0.00 | 0.18 | 0.18 | 54 | 1007.4 |
| 20260510005710 | 69 | 286 | 2.0 | 5.0 | 0.00 | 0.18 | 0.18 | 54 | 1007.6 |
| 20260510005155 | 70 | 286 | 2.0 | 5.0 | 0.00 | 0.18 | 0.18 | 53 | 1007.6 |
| 20260510004658 | 70 | 288 | 2.0 | 5.0 | 0.00 | 0.18 | 0.18 | 53 | 1007.4 |
| 20260510004518 | 70 | 288 | 2.0 | 5.0 | 0.00 | 0.18 | 0.18 | 53 | 1007.2 |
| 20260510004130 | 70 | 158 | 2.0 | 7.0 | 0.00 | 0.18 | 0.18 | 52 | 1007.4 |
| 20260510003631 | 71 | 194 | 2.0 | 7.0 | 0.00 | 0.18 | 0.18 | 51 | 1007.4 |
| 20260510003059 | 71 | 161 | 3.0 | 9.0 | 0.00 | 0.18 | 0.18 | 51 | 1007.2 |
| 20260510003021 | 71 | 160 | 2.0 | 9.0 | 0.00 | 0.18 | 0.18 | 51 | 1007.0 |
| 20260510002558 | 71 | 142 | 3.0 | 9.0 | 0.00 | 0.18 | 0.18 | 51 | 1007.2 |
| 20260510002034 | 71 | 189 | 3.0 | 9.0 | 0.00 | 0.18 | 0.18 | 51 | 1007.1 |
| 20260510001546 | 71 | 137 | 2.0 | 9.0 | 0.00 | 0.18 | 0.18 | 49 | 1006.7 |
| 20260510001529 | 72 | 137 | 3.0 | 9.0 | 0.00 | 0.18 | 0.18 | 49 | 1007.0 |
| 20260510001027 | 72 | 165 | 4.0 | 13.0 | 0.00 | 0.18 | 0.18 | 49 | 1007.0 |
| 20260510000458 | 73 | 167 | 4.0 | 13.0 | 0.00 | 0.18 | 0.18 | 49 | 1006.9 |
| 20260510000043 | 72 | 203 | 5.0 | 13.0 | 0.00 | 0.18 | 0.18 | 47 | 1006.5 |
| 20260509235958 | 73 | 142 | 4.0 | 13.0 | 0.00 | 0.18 | 0.18 | 47 | 1006.9 |
| 20260509235453 | 73 | 116 | 4.0 | 14.0 | 0.00 | 0.18 | 0.18 | 48 | 1006.8 |
| 20260509235208 | 73 | 157 | 4.0 | 14.0 | 0.00 | 0.18 | 0.18 | 47 | 1006.7 |
| 20260509234553 | 73 | 132 | 4.0 | 14.0 | 0.00 | 0.18 | 0.18 | 46 | 1006.4 |
| 20260509234422 | 73 | 97 | 5.0 | 16.0 | 0.00 | 0.18 | 0.18 | 46 | 1006.7 |
| 20260509233917 | 74 | 100 | 6.0 | 16.0 | 0.00 | 0.18 | 0.18 | 46 | 1006.7 |
| 20260509233418 | 74 | 82 | 5.0 | 15.0 | 0.00 | 0.18 | 0.18 | 46 | 1006.6 |
| 20260509233015 | 73 | 140 | 5.0 | 14.0 | 0.00 | 0.18 | 0.18 | 46 | 1006.3 |
| 20260509232851 | 74 | 182 | 4.0 | 10.0 | 0.00 | 0.18 | 0.18 | 47 | 1006.6 |
| 20260509232346 | 74 | 132 | 5.0 | 12.0 | 0.00 | 0.18 | 0.18 | 47 | 1006.6 |
| 20260509231819 | 74 | 226 | 5.0 | 13.0 | 0.00 | 0.18 | 0.18 | 46 | 1006.5 |